This is the latest recevied weather packets stored in our database for station/object KC3ROS. If no packets are shown the sender has not sent any weather packets the latest 10 day(s).
| Time | Temp. | Humidity | Pressure | Rain* | Wind** | Luminosity | Snow |
|---|---|---|---|---|---|---|---|
| 1777381298 | 11.11° C | 99% | 1012.9 hPa | 0 mm | - | 59 W/m² | - |
| 1777380995 | 11.11° C | 99% | 1012.8 hPa | 0 mm | - | 57 W/m² | - |
| 1777380691 | 11.11° C | 99% | 1012.9 hPa | 0 mm | - | 63 W/m² | - |
| 1777380388 | 11.11° C | 99% | 1012.8 hPa | 0 mm | - | 55 W/m² | - |
| 1777380084 | 11.11° C | 99% | 1012.8 hPa | 0 mm | - | 58 W/m² | - |
| 1777379780 | 11.11° C | 99% | 1012.8 hPa | 0 mm | - | 62 W/m² | - |
| 1777379475 | 10.56° C | 99% | 1012.7 hPa | 0 mm | - | 71 W/m² | - |
| 1777379171 | 10.56° C | 99% | 1012.7 hPa | 0 mm | - | 71 W/m² | - |
| 1777378867 | 10.56° C | 99% | 1012.9 hPa | 0 mm | - | 76 W/m² | - |
| 1777378563 | 10.56° C | 99% | 1012.6 hPa | 0 mm | - | 76 W/m² | - |
| 1777378259 | 10.56° C | 99% | 1012.8 hPa | 0 mm | - | 80 W/m² | - |
| 1777377957 | 10.56° C | 99% | 1012.8 hPa | 0 mm | - | 70 W/m² | - |
| 1777377657 | 10.56° C | 99% | 1012.6 hPa | 0 mm | - | 57 W/m² | - |
| 1777377353 | 10.56° C | 99% | 1012.6 hPa | 0 mm | - | 47 W/m² | - |
| 1777377049 | 10.56° C | 99% | 1012.7 hPa | 0 mm | - | 41 W/m² | - |
| 1777376746 | 10.56° C | 99% | 1012.6 hPa | 0 mm | - | 33 W/m² | - |
| 1777376444 | 10.56° C | 99% | 1012.8 hPa | 0 mm | - | 21 W/m² | - |
| 1777376138 | 10.56° C | 99% | 1012.6 hPa | 0 mm | - | 16 W/m² | - |
| 1777375833 | 10.56° C | 99% | 1012.2 hPa | 0.51 mm | - | 25 W/m² | - |
| 1777375528 | 10.56° C | 99% | 1012.4 hPa | 1.27 mm | - | 20 W/m² | - |
| 1777375224 | 10.56° C | 99% | 1012.1 hPa | 1.27 mm | - | 16 W/m² | - |
| 1777374920 | 10.56° C | 99% | 1012 hPa | 0.51 mm | - | 11 W/m² | - |
| 1777374616 | 10.56° C | 99% | 1012.3 hPa | 0 mm | - | 7 W/m² | - |
| 1777374312 | 10.56° C | 98% | 1012.6 hPa | 0 mm | - | 4 W/m² | - |
| 1777374009 | 10.56° C | 98% | 1011.9 hPa | 1.27 mm | - | 2 W/m² | - |
* Rain latest hour (hover to see other rain measurements)
** Current wind speed in m/s (hover to see current wind gust speed)